period_start,C,m1,H,J0,J1,J2,J3,J4,J5,JA,JB,JC,JD,JJ,JK,JN,#
2015-09-10 00:03:52,-0.00,2.34,0.00,24.65,28.84,31.75,14.60,47.08,1025.42,2030.01,2561.03,2619.99,2830.97,600.06,598.01,40.11,0000 0000 0000 0000 000000
2015-09-10 00:08:53,0.00,2.34,0.00,24.65,28.84,31.75,14.47,46.79,1025.51,2030.00,2561.02,2619.98,2830.98,599.84,597.97,40.16,0000 0000 0000 0000 000000
2015-09-10 00:13:54,0.00,2.34,0.00,24.65,28.84,31.76,14.60,47.09,1025.74,2030.00,2561.01,2619.97,2830.97,600.02,598.11,40.21,0000 0000 0000 0000 000000
2015-09-10 00:18:55,0.00,2.34,0.00,24.66,28.84,31.73,14.54,46.90,1025.48,2030.00,2561.02,2619.96,2830.96,600.17,598.08,40.26,0000 0000 0000 0000 000000
2015-09-10 00:23:57,-0.00,2.34,0.00,24.67,28.85,31.72,14.51,47.14,1025.43,2030.00,2561.02,2619.96,2830.97,599.95,597.81,40.31,0000 0000 0000 0000 000000
2015-09-10 00:28:58,0.00,2.34,0.00,24.67,28.85,31.76,14.54,47.19,1025.42,2030.00,2561.05,2619.94,2830.97,600.24,598.05,40.36,0000 0000 0000 0000 000000
2015-09-10 00:33:59,0.01,2.34,0.00,24.67,28.85,31.75,14.55,47.14,1025.42,2030.00,2561.01,2619.71,2830.85,600.10,597.98,40.41,0000 0000 0000 0000 000000
2015-09-10 00:39:00,0.10,2.34,0.00,24.66,28.85,31.76,14.52,46.98,1025.40,2030.00,2560.25,2618.66,2829.73,599.99,597.83,40.46,0000 0000 0000 0000 000000
2015-09-10 00:44:01,0.52,2.36,0.00,24.58,28.85,31.77,14.56,47.12,1025.41,2030.00,2553.48,2613.12,2823.59,599.83,597.89,40.51,0000 0000 0000 0000 000000
2015-09-10 00:49:03,0.00,2.37,0.00,24.55,28.85,31.76,14.53,47.13,1025.42,2030.00,2552.01,2612.00,2822.35,600.25,598.32,40.56,0000 0000 0000 0000 000000
2015-09-10 00:54:04,0.44,2.38,0.00,24.50,28.85,31.76,14.61,47.15,1025.41,2030.00,2547.93,2608.42,2818.78,600.00,598.37,40.61,0000 0000 0000 0000 000000
2015-09-10 00:59:06,0.97,2.43,0.00,24.36,28.85,31.75,14.58,47.21,1025.40,2030.00,2532.90,2595.78,2805.68,600.07,598.55,40.66,0000 0000 0000 0000 000000
2015-09-10 01:04:07,0.00,2.44,0.00,24.27,28.83,31.73,14.61,47.13,1025.40,2030.00,2531.99,2595.00,2804.98,600.23,598.85,40.71,0000 0000 0000 0000 000000
2015-09-10 01:09:08,0.00,2.44,0.00,24.11,28.82,31.61,14.69,47.18,1025.40,2030.00,2531.99,2595.00,2804.99,600.07,598.97,40.76,0000 0000 0000 0000 000000
2015-09-10 01:14:10,0.00,2.44,0.00,24.04,28.80,31.45,14.66,47.07,1025.40,2030.04,2532.01,2595.02,2805.00,599.98,599.17,40.81,0000 0000 0000 0000 000000
2015-09-10 01:19:11,-0.00,2.44,0.00,24.06,28.79,31.40,14.55,47.25,1025.40,2030.09,2532.04,2595.14,2805.03,599.94,598.97,40.87,0000 0000 0000 0000 000000
2015-09-10 01:24:12,-0.02,2.44,0.00,24.05,28.77,31.39,14.57,47.16,1025.38,2030.09,2532.27,2595.47,2805.11,599.92,598.82,40.92,0000 0000 0000 0000 000000
2015-09-10 01:29:13,-0.01,2.44,0.00,24.07,28.75,31.49,14.60,47.31,1025.39,2030.32,2532.85,2595.92,2805.56,600.09,599.00,40.97,0000 0000 0000 0000 000000
2015-09-10 01:34:15,0.02,2.44,0.00,24.07,28.74,31.63,14.66,47.10,1025.36,2030.64,2532.98,2595.98,2805.94,600.21,599.24,41.02,0000 0000 0000 0000 000000
2015-09-10 01:39:16,0.02,2.44,0.00,24.09,28.72,31.51,14.63,47.05,1025.22,2030.78,2532.99,2595.99,2805.98,600.03,598.90,41.07,0000 0000 0000 0000 000000
2015-09-10 01:44:17,0.00,2.45,0.00,24.07,28.70,31.53,14.59,47.21,1024.98,2030.94,2532.99,2595.99,2805.99,599.72,598.56,41.12,0000 0000 0000 0000 000000
2015-09-10 01:49:18,0.00,2.45,0.00,24.08,28.70,31.60,14.62,47.27,1024.92,2030.97,2532.99,2595.99,2805.99,600.07,598.74,41.17,0000 0000 0000 0000 000000
2015-09-10 01:54:19,0.00,2.45,0.00,24.06,28.67,31.61,14.53,47.34,1024.93,2030.96,2532.99,2596.00,2805.99,599.29,598.17,41.22,0000 0000 0000 0000 000000
2015-09-10 01:59:21,0.00,2.45,0.00,24.03,28.67,31.64,14.62,47.13,1024.92,2030.97,2532.99,2596.01,2806.00,599.86,598.73,41.27,0000 0000 0000 0000 000000
2015-09-10 02:04:22,0.00,2.45,0.00,24.02,28.65,31.63,14.57,47.31,1024.92,2030.98,2533.00,2596.01,2806.00,599.87,598.72,41.32,0000 0000 0000 0000 000000
2015-09-10 02:09:23,0.00,2.45,0.00,24.02,28.65,31.63,14.69,47.29,1024.92,2030.99,2533.02,2596.05,2806.02,600.47,599.17,41.37,0000 0000 0000 0000 000000
2015-09-10 02:14:24,-0.01,2.44,0.00,24.02,28.65,31.59,14.55,46.98,1024.92,2030.99,2533.17,2596.22,2806.10,599.91,598.78,41.42,0000 0000 0000 0000 000000
2015-09-10 02:19:26,-0.01,2.44,0.00,24.03,28.65,31.59,14.65,47.30,1024.92,2030.99,2533.15,2596.40,2806.25,600.98,599.71,41.47,0000 0000 0000 0000 000000
2015-09-10 02:24:27,-0.00,2.44,0.00,24.05,28.64,31.59,14.57,47.13,1024.92,2030.99,2533.31,2596.45,2806.43,599.80,598.59,41.52,0000 0000 0000 0000 000000
2015-09-10 02:29:29,-0.02,2.44,0.00,24.04,28.64,31.51,14.57,47.19,1024.92,2030.99,2533.47,2596.57,2806.45,600.01,598.79,41.57,0000 0000 0000 0000 000000
2015-09-10 02:34:30,0.00,2.44,0.00,24.04,28.63,31.49,14.59,47.27,1024.90,2030.99,2533.55,2596.66,2806.58,599.56,598.29,41.62,0000 0000 0000 0000 000000
2015-09-10 02:39:31,-0.02,2.44,0.00,24.05,28.63,31.57,14.50,47.27,1024.83,2030.99,2533.65,2596.78,2806.77,599.75,598.43,41.67,0000 0000 0000 0000 000000
2015-09-10 02:44:32,-0.00,2.44,0.00,24.04,28.63,31.53,14.61,47.27,1024.56,2031.00,2533.89,2596.91,2806.90,600.17,598.66,41.72,0000 0000 0000 0000 000000
2015-09-10 02:49:33,0.00,2.44,0.00,24.04,28.63,31.46,14.53,47.27,1024.59,2031.00,2533.91,2596.91,2806.80,599.63,598.26,41.77,0000 0000 0000 0000 000000
2015-09-10 02:54:34,-0.00,2.44,0.00,24.05,28.63,31.47,14.70,47.42,1024.67,2031.00,2533.88,2596.95,2806.90,600.59,599.27,41.82,0000 0000 0000 0000 000000
2015-09-10 02:59:36,0.00,2.44,0.00,24.05,28.63,31.47,14.55,47.16,1024.49,2031.00,2533.79,2596.87,2806.88,600.08,598.63,41.88,0000 0000 0000 0000 000000
2015-09-10 03:04:37,-0.00,2.44,0.00,24.05,28.63,31.50,14.62,47.17,1024.53,2031.00,2533.87,2596.90,2806.89,600.22,598.82,41.93,0000 0000 0000 0000 000000
2015-09-10 03:09:38,-0.00,2.44,0.00,24.05,28.63,31.47,14.60,47.37,1024.46,2031.00,2533.82,2596.91,2806.92,600.26,598.70,41.98,0000 0000 0000 0000 000000
2015-09-10 03:14:39,-0.00,2.44,0.00,24.04,28.62,31.51,14.60,47.32,1024.46,2031.00,2533.92,2596.93,2806.92,600.13,598.61,42.03,0000 0000 0000 0000 000000
2015-09-10 03:19:41,-0.00,2.44,0.00,24.05,28.62,31.47,14.65,47.23,1024.46,2031.00,2533.97,2596.92,2806.96,600.35,598.91,42.08,0000 0000 0000 0000 000000
2015-09-10 03:24:42,-0.00,2.44,0.00,24.05,28.62,31.43,14.50,47.08,1024.43,2031.00,2533.97,2596.96,2806.96,599.84,598.31,42.13,0000 0000 0000 0000 000000
2015-09-10 03:29:43,0.00,2.44,0.00,24.05,28.62,31.48,14.61,47.23,1024.43,2031.00,2533.96,2596.96,2806.94,600.34,598.82,42.18,0000 0000 0000 0000 000000
2015-09-10 03:34:45,0.00,2.44,0.00,24.07,28.62,31.47,14.57,47.13,1024.43,2031.00,2533.96,2596.96,2806.95,599.88,598.42,42.23,0000 0000 0000 0000 000000
2015-09-10 03:39:46,-0.00,2.44,0.00,24.06,28.62,31.44,14.54,47.29,1024.43,2031.00,2533.95,2596.96,2806.94,599.89,598.29,42.28,0000 0000 0000 0000 000000
2015-09-10 03:44:47,0.00,2.44,0.00,24.06,28.62,31.47,14.62,47.42,1024.43,2031.00,2533.96,2596.97,2806.97,600.13,598.64,42.33,0000 0000 0000 0000 000000
2015-09-10 03:49:48,0.00,2.44,0.00,24.07,28.62,31.46,14.64,47.22,1024.43,2031.00,2533.97,2596.96,2806.97,600.24,598.81,42.38,0000 0000 0000 0000 000000
2015-09-10 03:54:50,0.00,2.44,0.00,24.06,28.62,31.48,14.63,47.23,1024.41,2031.00,2533.95,2596.97,2806.98,599.93,598.46,42.43,0000 0000 0000 0000 000000
2015-09-10 03:59:51,0.00,2.44,0.00,24.06,28.62,31.50,14.55,47.21,1024.33,2031.00,2533.97,2596.97,2806.96,600.14,598.62,42.48,0000 0000 0000 0000 000000
2015-09-10 04:04:52,0.00,2.44,0.00,24.05,28.62,31.48,14.48,47.16,1024.00,2031.01,2533.96,2596.98,2806.98,600.00,598.11,42.53,0000 0000 0000 0000 000000
2015-09-10 04:09:53,-0.00,2.44,0.00,24.07,28.62,31.46,14.53,47.16,1023.95,2031.01,2533.93,2596.97,2806.97,599.64,597.87,42.58,0000 0000 0000 0000 000000
2015-09-10 04:14:55,-0.00,2.44,0.00,24.06,28.62,31.52,14.59,47.19,1023.94,2031.01,2533.97,2596.98,2806.97,600.44,598.49,42.63,0000 0000 0000 0000 000000
2015-09-10 04:19:56,0.00,2.44,0.00,24.06,28.62,31.57,14.55,47.17,1023.94,2031.01,2533.97,2596.98,2806.97,599.89,598.16,42.68,0000 0000 0000 0000 000000
2015-09-10 04:24:57,0.00,2.44,0.00,24.07,28.62,31.55,14.56,47.16,1023.93,2031.03,2533.98,2596.99,2806.99,600.09,598.08,42.73,0000 0000 0000 0000 000000
2015-09-10 04:29:58,-0.00,2.44,0.00,24.07,28.63,31.54,14.66,47.50,1023.78,2031.01,2533.98,2596.98,2806.99,600.61,598.68,42.78,0000 0000 0000 0000 000000
2015-09-10 04:34:59,0.00,2.44,0.00,24.07,28.63,31.48,14.56,47.27,1023.80,2031.02,2533.98,2596.98,2806.99,599.84,598.02,42.84,0000 0000 0000 0000 000000
2015-09-10 04:40:00,-0.00,2.44,0.00,24.07,28.63,31.44,14.53,47.14,1023.75,2031.02,2533.98,2596.98,2806.99,599.91,597.98,42.89,0000 0000 0000 0000 000000
2015-09-10 04:45:01,-0.00,2.44,0.00,24.07,28.64,31.45,14.58,47.20,1023.64,2031.01,2533.97,2596.99,2806.98,600.06,598.02,42.94,0000 0000 0000 0000 000000
2015-09-10 04:50:03,0.00,2.44,0.00,24.07,28.64,31.45,14.56,47.23,1023.61,2031.00,2533.99,2596.99,2806.98,600.14,598.11,42.99,0000 0000 0000 0000 000000
2015-09-10 04:55:04,0.00,2.44,0.00,24.08,28.65,31.44,14.53,47.06,1023.53,2031.00,2533.99,2596.99,2806.98,599.90,597.94,43.04,0000 0000 0000 0000 000000
2015-09-10 05:00:05,0.00,2.44,0.00,24.08,28.65,31.47,14.62,47.06,1023.49,2031.00,2533.99,2596.97,2806.98,600.03,597.94,43.09,0000 0000 0000 0000 000000
2015-09-10 05:05:07,0.00,2.44,0.00,24.07,28.65,31.52,14.57,47.23,1023.48,2031.00,2533.99,2596.96,2806.97,599.84,597.81,43.14,0000 0000 0000 0000 000000
2015-09-10 05:10:08,0.00,2.44,0.00,24.07,28.65,31.55,14.59,47.20,1023.47,2031.00,2533.98,2596.97,2806.97,600.18,598.00,43.19,0000 0000 0000 0000 000000
2015-09-10 05:15:09,0.00,2.44,0.00,24.07,28.65,31.53,14.52,47.06,1023.46,2031.00,2533.98,2596.96,2806.95,599.37,597.42,43.24,0000 0000 0000 0000 000000
2015-09-10 05:20:10,0.00,2.44,0.00,24.08,28.65,31.52,14.63,47.28,1023.45,2031.00,2533.98,2596.92,2806.90,600.28,598.15,43.29,0000 0000 0000 0000 000000
2015-09-10 05:25:12,0.03,2.44,0.00,24.09,28.66,31.58,14.60,47.36,1023.45,2031.00,2533.72,2596.61,2806.55,600.36,598.13,43.34,0000 0000 0000 0000 000000
2015-09-10 05:30:13,0.20,2.45,0.00,24.10,28.67,31.60,14.54,47.17,1023.45,2031.00,2531.18,2594.71,2804.43,600.01,597.64,43.39,0000 0000 0000 0000 000000
2015-09-10 05:35:14,0.04,2.46,0.00,24.10,28.67,31.61,14.53,47.25,1023.44,2031.00,2529.99,2593.74,2803.07,599.75,597.76,43.44,0000 0000 0000 0000 000000
2015-09-10 05:40:15,0.05,2.46,0.00,24.10,28.67,31.62,14.49,47.27,1023.41,2031.00,2529.34,2593.13,2802.79,599.77,597.57,43.49,0000 0000 0000 0000 000000
2015-09-10 05:45:17,0.18,2.46,0.00,24.10,28.67,31.62,14.51,47.21,1023.34,2031.00,2526.88,2591.34,2800.84,599.70,597.47,43.54,0000 0000 0000 0000 000000
2015-09-10 05:50:18,0.16,2.47,0.00,24.11,28.68,31.63,14.54,47.15,1023.13,2031.00,2524.40,2589.46,2798.75,599.92,597.51,43.59,0000 0000 0000 0000 000000
2015-09-10 05:55:19,0.10,2.48,0.00,24.12,28.69,31.63,14.64,47.21,1022.99,2031.00,2522.66,2588.07,2797.36,600.38,597.87,43.64,0000 0000 0000 0000 000000
2015-09-10 06:00:20,0.08,2.49,0.00,24.12,28.70,31.61,14.59,47.16,1022.99,2030.99,2521.21,2586.97,2796.06,600.04,597.54,43.69,0000 0000 0000 0000 000000
2015-09-10 06:05:22,0.06,2.49,0.00,24.13,28.70,31.58,14.56,47.17,1022.98,2030.99,2520.49,2586.19,2795.32,600.03,597.51,43.74,0000 0000 0000 0000 000000
2015-09-10 06:10:23,0.01,2.49,0.00,24.15,28.70,31.50,14.55,47.09,1022.97,2030.99,2520.00,2586.00,2794.99,600.10,597.54,43.79,0000 0000 0000 0000 000000
2015-09-10 06:15:24,0.06,2.49,0.00,24.13,28.70,31.58,14.56,47.09,1022.96,2030.99,2519.29,2585.47,2794.45,600.33,597.72,43.85,0000 0000 0000 0000 000000
2015-09-10 06:20:26,0.02,2.49,0.00,24.13,28.70,31.65,14.49,47.27,1022.96,2030.99,2518.73,2585.01,2794.00,599.79,597.27,43.90,0000 0000 0000 0000 000000
2015-09-10 06:25:27,0.06,2.50,0.00,24.14,28.70,31.64,14.53,47.08,1022.97,2030.99,2518.02,2584.47,2793.26,599.55,597.07,43.95,0000 0000 0000 0000 000000
2015-09-10 06:30:28,0.04,2.50,0.00,24.14,28.70,31.67,14.58,47.26,1022.96,2030.99,2517.20,2583.89,2792.69,599.69,597.14,44.00,0000 0000 0000 0000 000000
2015-09-10 06:35:30,0.09,2.50,0.00,24.15,28.70,31.67,14.61,47.31,1022.96,2030.99,2515.95,2582.91,2791.63,600.39,597.84,44.05,0000 0000 0000 0000 000000
2015-09-10 06:40:31,0.12,2.51,0.00,24.15,28.70,31.67,14.63,47.27,1022.96,2030.99,2514.16,2581.55,2790.18,600.19,597.60,44.10,0000 0000 0000 0000 000000
2015-09-10 06:45:32,0.06,2.51,0.00,24.15,28.70,31.65,14.50,47.45,1022.92,2030.98,2513.03,2580.80,2789.27,599.86,597.07,44.15,0000 0000 0000 0000 000000
2015-09-10 06:50:34,0.06,2.52,0.00,24.15,28.70,31.65,14.56,47.18,1022.83,2030.99,2512.11,2580.04,2788.64,600.38,597.73,44.20,0000 0000 0000 0000 000000
2015-09-10 06:55:34,0.05,2.52,0.00,24.14,28.70,31.68,14.56,47.38,1022.81,2030.98,2511.33,2579.44,2787.95,599.67,596.95,44.25,0000 0000 0000 0000 000000
2015-09-10 07:00:36,0.04,2.52,0.00,24.15,28.70,31.67,14.60,47.21,1022.63,2030.98,2510.52,2578.95,2787.10,600.46,597.68,44.30,0000 0000 0000 0000 000000
2015-09-10 07:05:37,0.06,2.52,0.00,24.15,28.70,31.67,14.59,47.23,1022.51,2030.97,2509.77,2578.16,2786.55,600.30,597.48,44.35,0000 0000 0000 0000 000000
2015-09-10 07:10:38,0.03,2.53,0.00,24.15,28.70,31.68,14.52,47.12,1022.50,2030.98,2509.00,2577.82,2785.99,600.28,597.30,44.40,0000 0000 0000 0000 000000
2015-09-10 07:15:39,0.06,2.53,0.00,24.14,28.70,31.67,14.46,47.22,1022.48,2030.98,2508.18,2577.05,2785.24,599.83,596.98,44.45,0000 0000 0000 0000 000000
2015-09-10 07:20:40,0.07,2.53,0.00,24.15,28.70,31.67,14.57,47.19,1022.48,2030.97,2507.27,2576.42,2784.53,600.13,597.29,44.50,0000 0000 0000 0000 000000
2015-09-10 07:25:42,0.08,2.54,0.00,24.14,28.70,31.66,14.51,47.17,1022.48,2030.98,2506.03,2575.44,2783.52,599.77,596.90,44.55,0000 0000 0000 0000 000000
2015-09-10 07:30:43,0.06,2.54,0.00,24.13,28.70,31.67,14.54,47.25,1022.47,2030.99,2504.97,2574.75,2782.57,600.28,597.43,44.60,0000 0000 0000 0000 000000
2015-09-10 07:35:44,0.05,2.54,0.00,24.12,28.70,31.67,14.50,46.98,1022.45,2030.98,2504.00,2573.98,2781.79,599.38,596.53,44.65,0000 0000 0000 0000 000000
2015-09-10 07:40:46,0.09,2.55,0.00,24.12,28.70,31.67,14.56,47.13,1022.40,2030.98,2502.76,2573.06,2780.76,600.20,597.37,44.70,0000 0000 0000 0000 000000
2015-09-10 07:45:46,0.08,2.55,0.00,24.12,28.70,31.68,14.62,47.25,1022.18,2030.98,2501.45,2572.04,2779.71,600.33,597.36,44.75,0000 0000 0000 0000 000000
2015-09-10 07:50:48,0.09,2.56,0.00,24.12,28.69,31.67,14.41,46.94,1022.02,2030.99,2500.08,2571.02,2778.56,599.46,596.40,44.80,0000 0000 0000 0000 000000
2015-09-10 07:55:49,0.10,2.56,0.00,24.14,28.69,31.66,14.55,46.91,1022.03,2030.98,2498.64,2569.90,2777.34,599.79,596.68,44.86,0000 0000 0000 0000 000000
2015-09-10 08:00:50,0.07,2.57,0.00,24.12,28.68,31.68,14.56,47.06,1022.01,2030.99,2497.45,2569.04,2776.26,599.84,596.77,44.91,0000 0000 0000 0000 000000
2015-09-10 08:05:52,0.05,2.57,0.00,24.14,28.68,31.68,14.63,47.32,1021.99,2030.99,2496.76,2568.44,2775.67,600.07,596.96,44.96,0000 0000 0000 0000 000000
2015-09-10 08:10:53,0.02,2.57,0.00,24.14,28.67,31.67,14.61,47.17,1021.99,2030.99,2496.02,2567.97,2775.00,600.07,596.81,45.01,0000 0000 0000 0000 000000
2015-09-10 08:15:55,0.01,2.57,0.00,24.13,28.67,31.65,14.55,47.24,1021.99,2030.99,2495.99,2567.78,2774.97,599.47,596.36,45.06,0000 0000 0000 0000 000000
2015-09-10 08:20:56,0.03,2.57,0.00,24.12,28.67,31.66,14.57,47.24,1021.97,2030.99,2495.73,2567.22,2774.57,600.21,597.12,45.11,0000 0000 0000 0000 000000
2015-09-10 08:25:57,0.02,2.58,0.00,24.12,28.67,31.66,14.54,47.21,1021.85,2030.99,2495.07,2567.01,2774.06,599.76,596.76,45.16,0000 0000 0000 0000 000000
2015-09-10 08:30:59,0.00,2.58,0.00,24.11,28.67,31.67,14.56,47.13,1021.87,2030.99,2494.98,2566.97,2773.99,599.74,596.61,45.21,0000 0000 0000 0000 000000
2015-09-10 08:36:00,0.06,2.58,0.00,24.12,28.67,31.66,14.57,47.18,1021.81,2030.99,2494.34,2566.36,2773.48,600.23,597.04,45.26,0000 0000 0000 0000 000000
2015-09-10 08:41:01,0.01,2.58,0.00,24.12,28.67,31.65,14.50,46.96,1021.73,2030.99,2493.99,2566.01,2773.02,599.55,596.34,45.31,0000 0000 0000 0000 000000
2015-09-10 08:46:03,0.01,2.58,0.00,24.12,28.67,31.64,14.53,47.24,1021.80,2031.00,2493.58,2565.98,2772.98,600.30,597.04,45.36,0000 0000 0000 0000 000000
2015-09-10 08:51:04,0.01,2.58,0.00,24.12,28.67,31.66,14.56,47.05,1021.79,2031.00,2493.03,2565.85,2772.81,599.90,596.68,45.41,0000 0000 0000 0000 000000
2015-09-10 08:56:06,0.06,2.58,0.00,24.10,28.66,31.65,14.55,47.12,1021.59,2031.00,2492.39,2565.12,2772.08,599.92,596.66,45.46,0000 0000 0000 0000 000000
2015-09-10 09:01:08,0.06,2.59,0.00,24.10,28.66,31.65,14.58,47.18,1021.53,2031.00,2491.20,2564.54,2771.31,600.22,597.07,45.51,0000 0000 0000 0000 000000
2015-09-10 09:06:09,0.01,2.59,0.00,24.10,28.65,31.66,14.48,47.16,1021.52,2031.00,2491.00,2564.06,2771.02,599.85,596.55,45.56,0000 0000 0000 0000 000000
2015-09-10 09:11:10,0.00,2.59,0.00,24.10,28.65,31.64,14.59,47.21,1021.51,2031.00,2490.98,2564.01,2771.00,600.20,596.85,45.61,0000 0000 0000 0000 000000
2015-09-10 09:16:12,0.01,2.59,0.00,24.10,28.65,31.63,14.53,47.23,1021.50,2031.00,2490.33,2564.00,2770.99,599.94,596.61,45.66,0000 0000 0000 0000 000000
2015-09-10 09:21:13,0.01,2.59,0.00,24.08,28.65,31.62,14.53,47.23,1021.50,2031.00,2490.00,2563.93,2770.82,600.10,596.81,45.71,0000 0000 0000 0000 000000
2015-09-10 09:26:14,0.06,2.59,0.00,24.07,28.65,31.62,14.50,47.17,1021.50,2031.01,2489.21,2563.17,2770.04,599.78,596.51,45.76,0000 0000 0000 0000 000000
2015-09-10 09:31:16,0.00,2.60,0.00,24.07,28.65,31.63,14.49,47.28,1021.50,2031.01,2489.00,2563.00,2769.98,599.92,596.60,45.81,0000 0000 0000 0000 000000
2015-09-10 09:36:17,0.02,2.60,0.00,24.08,28.65,31.55,14.45,47.08,1021.50,2031.00,2488.69,2562.97,2769.69,599.76,596.36,45.87,0000 0000 0000 0000 000000
2015-09-10 09:41:17,0.04,2.60,0.00,24.07,28.64,31.60,14.44,46.99,1021.50,2031.02,2488.05,2562.46,2769.05,600.03,596.87,45.92,0000 0000 0000 0000 000000
2015-09-10 09:46:19,0.01,2.60,0.00,24.05,28.63,31.65,14.49,47.21,1021.50,2031.01,2487.94,2562.02,2768.98,599.90,596.83,45.97,0000 0000 0000 0000 000000
2015-09-10 09:51:20,0.03,2.60,0.00,24.07,28.62,31.61,14.61,47.24,1021.50,2031.03,2487.20,2561.95,2768.42,600.28,597.02,46.02,0000 0000 0000 0000 000000
2015-09-10 09:56:22,0.05,2.60,0.00,24.06,28.62,31.55,14.53,47.30,1021.48,2031.02,2486.64,2561.17,2767.98,600.05,596.82,46.07,0000 0000 0000 0000 000000
2015-09-10 10:01:23,0.03,2.61,0.00,24.05,28.62,31.61,14.55,47.14,1021.37,2031.06,2485.97,2560.95,2767.33,599.85,596.71,46.12,0000 0000 0000 0000 000000
2015-09-10 10:06:24,0.04,2.61,0.00,24.06,28.62,31.54,14.62,47.24,1021.13,2031.03,2485.33,2560.37,2767.00,600.09,596.64,46.17,0000 0000 0000 0000 000000
2015-09-10 10:11:25,0.01,2.61,0.00,24.04,28.62,31.62,14.58,47.13,1021.04,2031.03,2485.01,2560.01,2766.96,600.43,596.99,46.22,0000 0000 0000 0000 000000
2015-09-10 10:16:27,0.01,2.61,0.00,24.05,28.62,31.53,14.49,47.03,1021.02,2031.08,2484.98,2560.00,2766.67,599.72,596.34,46.27,0000 0000 0000 0000 000000
2015-09-10 10:21:28,0.02,2.61,0.00,24.03,28.62,31.52,14.54,47.18,1021.01,2031.05,2484.46,2559.96,2766.08,599.79,596.27,46.32,0000 0000 0000 0000 000000
2015-09-10 10:26:30,0.03,2.61,0.00,24.03,28.60,31.53,14.58,47.19,1021.01,2031.05,2484.01,2559.53,2766.00,600.03,596.55,46.37,0000 0000 0000 0000 000000
2015-09-10 10:31:31,0.04,2.61,0.00,24.02,28.60,31.54,14.56,47.29,1021.01,2031.05,2483.24,2559.01,2765.49,600.21,596.80,46.42,0000 0000 0000 0000 000000
2015-09-10 10:36:33,0.03,2.62,0.00,24.02,28.60,31.56,14.59,47.03,1021.01,2031.08,2482.46,2558.98,2765.01,600.32,597.04,46.47,0000 0000 0000 0000 000000
2015-09-10 10:41:34,0.02,2.62,0.00,24.02,28.60,31.54,14.63,47.31,1020.96,2031.06,2482.01,2558.61,2764.87,600.14,596.75,46.52,0000 0000 0000 0000 000000
2015-09-10 10:46:35,0.04,2.62,0.00,24.01,28.60,31.56,14.44,47.18,1020.85,2031.03,2481.40,2558.02,2764.08,599.73,596.28,46.57,0000 0000 0000 0000 000000
2015-09-10 10:51:37,0.01,2.62,0.00,24.00,28.60,31.52,14.55,47.33,1020.63,2031.06,2481.02,2558.00,2764.00,599.71,596.09,46.62,0000 0000 0000 0000 000000
2015-09-10 10:56:38,0.01,2.62,0.00,24.00,28.59,31.53,14.52,47.27,1020.54,2031.04,2480.93,2557.75,2763.95,599.86,596.19,46.67,0000 0000 0000 0000 000000
2015-09-10 11:01:39,0.05,2.62,0.00,24.00,28.59,31.48,14.51,47.20,1020.53,2031.05,2480.27,2557.17,2763.42,599.66,596.07,46.72,0000 0000 0000 0000 000000
2015-09-10 11:06:41,0.02,2.62,0.00,23.97,28.58,31.55,14.51,47.11,1020.52,2031.10,2480.00,2557.01,2763.02,600.17,596.54,46.77,0000 0000 0000 0000 000000
2015-09-10 11:11:42,0.01,2.63,0.00,23.97,28.57,31.56,14.44,47.29,1020.52,2031.20,2479.96,2556.99,2763.00,599.94,596.32,46.83,0000 0000 0000 0000 000000
2015-09-10 11:16:43,0.04,2.63,0.00,23.97,28.57,31.50,14.52,47.27,1020.52,2031.32,2479.38,2556.88,2762.91,599.87,596.15,46.88,0000 0000 0000 0000 000000
2015-09-10 11:21:44,0.05,2.63,0.00,23.97,28.57,31.53,14.58,47.23,1020.52,2031.40,2479.00,2556.20,2762.19,600.66,597.04,46.93,0000 0000 0000 0000 000000
2015-09-10 11:26:46,0.00,2.63,0.00,23.97,28.57,31.44,14.49,47.13,1020.51,2031.32,2478.75,2556.00,2762.00,599.22,595.74,46.98,0000 0000 0000 0000 000000
2015-09-10 11:31:47,0.03,2.63,0.00,23.97,28.57,31.42,14.49,47.17,1020.38,2031.38,2478.06,2555.99,2761.92,599.94,596.23,47.03,0000 0000 0000 0000 000000
2015-09-10 11:36:49,0.05,2.63,0.00,23.95,28.57,31.43,14.48,47.42,1020.22,2031.41,2477.98,2555.51,2761.26,599.63,595.74,47.08,0000 0000 0000 0000 000000
2015-09-10 11:41:50,0.03,2.64,0.00,23.95,28.56,31.41,14.55,47.27,1020.12,2031.47,2477.51,2555.03,2761.00,599.85,596.03,47.13,0000 0000 0000 0000 000000
2015-09-10 11:46:51,0.03,2.64,0.00,23.95,28.55,31.47,14.54,47.31,1020.05,2031.71,2477.05,2555.00,2761.00,600.02,596.21,47.18,0000 0000 0000 0000 000000
2015-09-10 11:51:53,-0.00,2.64,0.00,23.94,28.55,31.48,14.54,47.40,1020.05,2031.65,2477.00,2554.98,2760.94,600.19,596.37,47.23,0000 0000 0000 0000 000000
2015-09-10 11:56:54,0.03,2.64,0.00,23.93,28.55,31.43,14.49,47.26,1020.04,2031.85,2477.00,2554.97,2760.89,599.88,596.09,47.28,0000 0000 0000 0000 000000
2015-09-10 12:01:55,0.00,2.64,0.00,23.93,28.55,31.36,14.47,47.13,1020.04,2031.91,2476.99,2554.98,2760.87,599.94,596.15,47.33,0000 0000 0000 0000 000000
2015-09-10 12:06:57,0.01,2.64,0.00,23.92,28.55,31.42,14.55,47.20,1019.99,2031.93,2476.98,2554.95,2760.65,600.27,596.36,47.38,0000 0000 0000 0000 000000
2015-09-10 12:11:57,0.00,2.64,0.00,23.92,28.55,31.42,14.57,47.30,1019.98,2031.98,2476.98,2554.96,2760.86,600.02,596.11,47.43,0000 0000 0000 0000 000000
2015-09-10 12:16:58,0.00,2.64,0.00,23.90,28.54,31.35,14.52,47.23,1019.88,2031.97,2476.96,2554.93,2760.69,599.83,595.92,47.48,0000 0000 0000 0000 000000
2015-09-10 12:22:00,0.01,2.64,0.00,23.90,28.54,31.35,14.61,47.29,1019.75,2031.98,2476.93,2554.82,2760.42,600.33,596.40,47.53,0000 0000 0000 0000 000000
2015-09-10 12:27:01,0.01,2.64,0.00,23.89,28.52,31.37,14.52,47.30,1019.66,2031.98,2476.85,2554.73,2760.25,599.76,595.85,47.58,0000 0000 0000 0000 000000
2015-09-10 12:32:03,-0.00,2.64,0.00,23.90,28.52,31.36,14.51,47.13,1019.59,2031.96,2476.78,2554.74,2760.20,599.70,595.71,47.63,0000 0000 0000 0000 000000
2015-09-10 12:37:04,0.02,2.64,0.00,23.90,28.52,31.29,14.51,47.16,1019.56,2031.96,2476.59,2554.58,2760.20,600.34,596.25,47.68,0000 0000 0000 0000 000000
2015-09-10 12:42:05,0.00,2.64,0.00,23.89,28.52,31.31,14.49,46.90,1019.55,2031.99,2476.35,2554.58,2760.13,599.69,595.67,47.73,0000 0000 0000 0000 000000
2015-09-10 12:47:06,-0.01,2.64,0.00,23.89,28.52,31.29,14.54,47.08,1019.56,2031.98,2476.38,2554.68,2760.21,600.26,596.22,47.78,0000 0000 0000 0000 000000
2015-09-10 12:52:08,-0.01,2.64,0.00,23.88,28.52,31.29,14.55,47.07,1019.55,2031.99,2476.64,2554.82,2760.39,600.07,596.05,47.83,0000 0000 0000 0000 000000
2015-09-10 12:57:09,0.00,2.64,0.00,23.86,28.52,31.36,14.58,47.03,1019.55,2031.99,2476.53,2554.82,2760.32,600.20,596.13,47.89,0000 0000 0000 0000 000000